Paganella, Italy

7:30 PM CET on March 25, 2017 (GMT +0100)
Paganella

Weather History for LIVP - March, 2013

Change the Weather History Date:

Tuesday, March 5, 2013

  Actual Average Record
Temperature  
Mean Temperature 24 °F -  
Max Temperature 28 °F 31 °F 41 °F (1997)
Min Temperature 21 °F 22 °F 6 °F (2008)
Degree Days  
Heating Degree Days 40    
Moisture  
Dew Point 11 °F    
Average Humidity 52    
Maximum Humidity 69    
Minimum Humidity 34    
Precipitation  
Precipitation 0.00 in 0.05 in - ()
Sea Level Pressure  
Sea Level Pressure 30.02 in    
Wind  
Wind Speed 12 mph ()    
Max Wind Speed 17 mph    
Max Gust Speed -    
Visibility 9.9 miles    
Events      
Averages and records for this station are not official NWS values.
T = Trace of Precipitation, MM = Missing Value Source: Averaged Metar Reports

Daily Weather History Graph

Daily Weather History Graph

Search for Another Location

Airport or City:

Trip Planner

Search our weather history database for the weather conditions in past years. The results will help you decide how hot, cold, wet, or windy it might be!

Date:

Astronomy

Mar. 05, 2013 Rise Set
Actual Time 6:47 AM CET 6:07 PM CET
Civil Twilight 6:17 AM CET 6:37 PM CET
Nautical Twilight 5:43 AM CET 7:12 PM CET
Astronomical Twilight 5:08 AM CET 7:47 PM CET
Moon 1:57 AM CET (3/5) 11:15 AM CET (3/5)
Length of Visible Light 12h 20m
Length of Day
11h 20m
Last Quarter, 44% of the Moon is Illuminated
Mar 5
Last Quarter
Mar 11
New
Mar 19
First Quarter
Mar 27
Full
Apr 3
Last Quarter

Hourly Weather History & Observations

Time (CET) Temp. Windchill Dew Point Humidity Pressure Visibility Wind Dir Wind Speed Gust Speed Precip Events Conditions
12:55 AM 26.6 °F 14.3 °F 8.6 °F 47% 30.06 in - SSW 16.1 mph - N/A   Clear
1:00 AM 26 °F - 9 °F 34%  in 19 mi SSW 16.1 mph - -  
1:55 AM 24.8 °F 11.9 °F 10.4 °F 54% 30.06 in - SSW 16.1 mph - N/A   Clear
2:55 AM 24.8 °F 13.4 °F 10.4 °F 54% 30.06 in - SSW 12.7 mph - N/A   Clear
3:55 AM 24.8 °F 12.4 °F 8.6 °F 50% 30.06 in - SSW 15.0 mph - N/A   Clear
4:00 AM 25 °F - 9 °F 36%  in 19 mi SSW 15.0 mph - -  
4:55 AM 24.8 °F 12.4 °F 8.6 °F 50% 30.06 in - SSW 15.0 mph - N/A   Clear
5:55 AM 24.8 °F 14.0 °F 6.8 °F 46% 30.06 in - SSW 11.5 mph - N/A   Clear
6:55 AM 23.0 °F 10.6 °F 8.6 °F 54% 30.04 in - SSW 13.8 mph - N/A   Clear
7:00 AM 24 °F - 8 °F 36%  in 31 mi SSW 13.8 mph - -   Clear
7:55 AM 24.8 °F 14.6 °F 8.6 °F 50% 30.04 in - South 10.4 mph - N/A   Clear
8:55 AM 24.8 °F 14.6 °F 10.4 °F 54% 30.04 in - South 10.4 mph - N/A   Clear
9:55 AM 26.6 °F 18.2 °F 12.2 °F 55% 30.04 in - South 8.1 mph - N/A   Clear
10:00 AM 27 °F - 11 °F 37%  in 25 mi South 8.1 mph - -   Partly Cloudy
10:55 AM 26.6 °F 16.2 °F 10.4 °F 51% 30.06 in - South 11.5 mph - N/A   Clear
11:55 AM 28.4 °F 18.5 °F 10.4 °F 47% 30.06 in - South 11.5 mph - N/A   Clear
12:55 PM 28.4 °F 19.1 °F 10.4 °F 47% 30.06 in - South 10.4 mph - N/A   Clear
1:55 PM 28.4 °F 20.4 °F 12.2 °F 51% 30.04 in - South 8.1 mph - N/A   Clear
2:55 PM 28.4 °F 18.5 °F 14.0 °F 55% 30.01 in - South 11.5 mph - N/A   Clear
3:55 PM 28.4 °F 19.1 °F 14.0 °F 55% 30.01 in - South 10.4 mph - N/A   Clear
4:00 PM 28 °F - 14 °F 43%  in 28 mi South 10.4 mph - -   Partly Cloudy
4:55 PM 26.6 °F 16.8 °F 14.0 °F 59% 29.98 in - SSE 10.4 mph - N/A   Clear
5:55 PM 21.2 °F 10.9 °F 8.6 °F 58% 29.98 in 6.2 mi South 9.2 mph - N/A   Mostly Cloudy
6:55 PM 24.8 °F 13.4 °F 12.2 °F 59% 29.98 in 6.2 mi SSE 12.7 mph - N/A   Mostly Cloudy
7:00 PM 25 °F - 13 °F 47%  in 16 mi SSE 12.7 mph - -   Overcast
7:55 PM 24.8 °F 14.0 °F 15.8 °F 69% 29.98 in 6.2 mi SSE 11.5 mph - N/A   Mostly Cloudy
8:55 PM 23.0 °F 10.1 °F 14.0 °F 68% 29.98 in 6.2 mi SSE 15.0 mph - N/A   Mostly Cloudy
9:55 PM 23.0 °F 9.2 °F 14.0 °F 68% 29.98 in 6.2 mi SSE 17.3 mph - N/A   Mostly Cloudy
10:00 PM 23 °F - 14 °F 55%  in 12 mi SSE 17.3 mph - -   Overcast
10:55 PM 23.0 °F 11.1 °F 12.2 °F 63% 29.98 in 6.2 mi SSE 12.7 mph - N/A   Mostly Cloudy
11:55 PM 23.0 °F 12.4 °F 12.2 °F 63% 29.95 in 6.2 mi SSE 10.4 mph - N/A   Mostly Cloudy